This is the latest recevied weather packets stored in our database for station/object WD9U. If no packets are shown the sender has not sent any weather packets the latest 10 day(s).
| Time | Temp. | Humidity | Pressure | Rain* | Wind** | Luminosity | Snow |
|---|---|---|---|---|---|---|---|
| 1777763230 | 12.78° C | 50% | 1010.8 hPa | 0 mm | - | 76 W/m² | - |
| 1777763112 | 12.78° C | 49% | 1011 hPa | 0 mm | - | 81 W/m² | - |
| 1777762870 | 13.33° C | 44% | 1010.9 hPa | 0 mm | - | 99 W/m² | - |
| 1777762510 | 13.33° C | 40% | 1010.9 hPa | 0 mm | - | 170 W/m² | - |
| 1777762150 | 13.89° C | 42% | 1011.1 hPa | 0 mm | - | 242 W/m² | - |
| 1777761912 | 13.89° C | 38% | 1011.1 hPa | 0 mm | - | 259 W/m² | - |
| 1777761790 | 13.89° C | 37% | 1011.2 hPa | 0 mm | - | 221 W/m² | - |
| 1777761430 | 13.89° C | 38% | 1011.3 hPa | 0 mm | - | 298 W/m² | - |
| 1777761070 | 13.89° C | 33% | 1011.5 hPa | 0 mm | - | 351 W/m² | - |
| 1777760710 | 13.89° C | 34% | 1011.5 hPa | 0 mm | - | 375 W/m² | - |
| 1777760350 | 13.89° C | 32% | 1011.5 hPa | 0 mm | - | 376 W/m² | - |
| 1777759990 | 14.44° C | 31% | 1011.7 hPa | 0 mm | - | 350 W/m² | - |
| 1777759630 | 14.44° C | 30% | 1011.7 hPa | 0 mm | - | 352 W/m² | - |
| 1777759513 | 14.44° C | 27% | 1011.7 hPa | 0 mm | - | 424 W/m² | - |
| 1777759270 | 15° C | 27% | 1011.6 hPa | 0 mm | - | 452 W/m² | - |
| 1777758910 | 14.44° C | 28% | 1011.8 hPa | 0 mm | - | 504 W/m² | - |
| 1777758550 | 13.89° C | 28% | 1011.8 hPa | 0 mm | - | 494 W/m² | - |
| 1777758312 | 13.89° C | 27% | 1011.9 hPa | 0 mm | - | 572 W/m² | - |
| 1777758190 | 13.89° C | 27% | 1012 hPa | 0 mm | - | 584 W/m² | - |
| 1777757829 | 14.44° C | 27% | 1011.9 hPa | 0 mm | - | 459 W/m² | - |
| 1777757469 | 14.44° C | 27% | 1012 hPa | 0 mm | - | 294 W/m² | - |
| 1777757109 | 14.44° C | 27% | 1012.1 hPa | 0 mm | - | 562 W/m² | - |
| 1777756749 | 14.44° C | 27% | 1012.2 hPa | 0 mm | - | 570 W/m² | - |
| 1777756388 | 13.89° C | 27% | 1012.4 hPa | 0 mm | - | 210 W/m² | - |
| 1777756028 | 14.44° C | 29% | 1012.5 hPa | 0 mm | - | 600 W/m² | - |
* Rain latest hour (hover to see other rain measurements)
** Current wind speed in m/s (hover to see current wind gust speed)